Time,TemperatureF,DewpointF,PressureIn,WindDirection,WindDirectionDegrees,WindSpeedMPH,WindSpeedGustMPH,Humidity,HourlyPrecipIn,Conditions,Clouds,dailyrainin,SolarRadiationWatts/m^2,SoftwareType,DateUTC
2013-09-02 00:01:00,62.8,54.4,30.24,WSW,250,6.5,11.5,74,0.00,CLR,,0.00,0.0,WeatherDisplay:10.37,2013-09-01 22:01:00,
2013-09-02 00:06:00,62.8,54.4,30.24,West,269,5.3,9.2,74,0.00,CLR,,0.00,0.0,WeatherDisplay:10.37,2013-09-01 22:06:00,
2013-09-02 00:11:00,62.8,54.4,30.24,WSW,255,6.3,9.2,74,0.00,CLR,,0.00,0.0,WeatherDisplay:10.37,2013-09-01 22:11:00,
2013-09-02 00:16:00,62.8,54.4,30.24,WSW,250,5.3,11.0,74,0.00,CLR,,0.00,0.0,WeatherDisplay:10.37,2013-09-01 22:16:00,
2013-09-02 00:21:00,63.0,54.9,30.24,WSW,257,7.4,12.7,75,0.00,CLR,,0.00,0.0,WeatherDisplay:10.37,2013-09-01 22:21:00,
2013-09-02 00:26:00,63.1,55.0,30.24,West,260,7.6,12.7,75,0.00,CLR,,0.00,0.0,WeatherDisplay:10.37,2013-09-01 22:26:00,
2013-09-02 00:31:00,63.2,55.1,30.24,WSW,250,7.6,12.7,75,0.00,CLR,,0.00,0.0,WeatherDisplay:10.37,2013-09-01 22:31:00,
2013-09-02 00:36:00,63.3,55.2,30.24,West,266,8.3,10.4,75,0.00,CLR,,0.00,0.0,WeatherDisplay:10.37,2013-09-01 22:36:00,
2013-09-02 00:41:00,63.3,55.2,30.23,WSW,240,9.3,13.8,75,0.00,CLR,,0.00,0.0,WeatherDisplay:10.37,2013-09-01 22:41:00,
2013-09-02 00:46:00,63.4,55.3,30.23,WSW,241,8.0,15.0,75,0.00,CLR,,0.00,0.0,WeatherDisplay:10.37,2013-09-01 22:46:00,
2013-09-02 00:51:00,63.3,54.9,30.23,WSW,248,6.6,10.4,74,0.00,CLR,,0.00,0.0,WeatherDisplay:10.37,2013-09-01 22:51:00,
2013-09-02 00:56:00,63.3,54.9,30.23,WSW,244,5.6,6.9,74,0.00,CLR,,0.00,0.0,WeatherDisplay:10.37,2013-09-01 22:56:00,
2013-09-02 01:01:00,63.2,55.1,30.23,WSW,252,6.0,12.7,75,0.00,CLR,,0.00,0.0,WeatherDisplay:10.37,2013-09-01 23:01:00,
2013-09-02 01:06:00,63.1,55.0,30.23,West,260,7.7,8.1,75,0.00,CLR,,0.00,0.0,WeatherDisplay:10.37,2013-09-01 23:06:00,
2013-09-02 01:11:00,63.1,55.4,30.23,West,259,7.9,11.5,76,0.00,CLR,,0.00,0.0,WeatherDisplay:10.37,2013-09-01 23:11:00,
2013-09-02 01:16:00,63.1,55.4,30.23,WSW,254,7.2,9.2,76,0.00,CLR,,0.00,0.0,WeatherDisplay:10.37,2013-09-01 23:16:00,
2013-09-02 01:21:00,63.2,55.5,30.23,WSW,251,6.3,11.5,76,0.00,CLR,,0.00,0.0,WeatherDisplay:10.37,2013-09-01 23:21:00,
2013-09-02 01:26:00,63.1,55.4,30.23,West,260,9.1,13.8,76,0.00,CLR,,0.00,0.0,WeatherDisplay:10.37,2013-09-01 23:26:00,
2013-09-02 01:31:00,63.1,55.4,30.23,West,270,11.0,11.5,76,0.00,CLR,,0.00,0.0,WeatherDisplay:10.37,2013-09-01 23:31:00,
2013-09-02 01:36:00,63.1,55.8,30.22,WSW,250,7.5,11.5,77,0.00,FEW,,0.00,0.0,WeatherDisplay:10.37,2013-09-01 23:36:00,
2013-09-02 01:41:00,63.1,55.8,30.22,WSW,252,8.9,12.7,77,0.00,FEW,,0.00,0.0,WeatherDisplay:10.37,2013-09-01 23:41:00,
2013-09-02 01:46:00,63.1,55.8,30.21,West,260,7.6,12.0,77,0.00,FEW,,0.00,0.0,WeatherDisplay:10.37,2013-09-01 23:46:00,
2013-09-02 01:51:00,63.1,55.8,30.21,West,271,7.7,15.0,77,0.00,FEW,,0.00,0.0,WeatherDisplay:10.37,2013-09-01 23:51:00,
2013-09-02 01:56:00,63.2,55.8,30.21,West,266,7.2,11.5,77,0.00,FEW,,0.00,0.0,WeatherDisplay:10.37,2013-09-01 23:56:00,
2013-09-02 02:01:00,63.2,55.8,30.21,WNW,288,7.5,11.5,77,0.00,FEW,,0.00,0.0,WeatherDisplay:10.37,2013-09-02 00:01:00,
2013-09-02 02:06:00,63.2,55.5,30.21,NW,321,5.5,10.4,76,0.00,CLR,,0.00,0.0,WeatherDisplay:10.37,2013-09-02 00:06:00,
2013-09-02 02:11:00,62.9,55.2,30.22,NW,320,3.4,5.0,76,0.00,CLR,,0.00,0.0,WeatherDisplay:10.37,2013-09-02 00:11:00,
2013-09-02 02:16:00,62.7,55.0,30.22,NW,313,4.7,9.2,76,0.00,CLR,,0.00,0.0,WeatherDisplay:10.37,2013-09-02 00:16:00,
2013-09-02 02:21:00,62.4,54.7,30.21,NW,313,3.5,6.0,76,0.00,CLR,,0.00,0.0,WeatherDisplay:10.37,2013-09-02 00:21:00,
2013-09-02 02:26:00,62.2,54.5,30.22,NW,320,4.9,11.5,76,0.00,CLR,,0.00,0.0,WeatherDisplay:10.37,2013-09-02 00:26:00,
2013-09-02 02:31:00,61.9,54.6,30.22,NW,312,4.3,5.8,77,0.00,CLR,,0.00,0.0,WeatherDisplay:10.37,2013-09-02 00:31:00,
2013-09-02 02:36:00,61.6,55.0,30.21,NW,315,3.9,11.5,79,0.00,OVC,,0.00,0.0,WeatherDisplay:10.37,2013-09-02 00:36:00,
2013-09-02 02:41:00,61.4,55.2,30.22,NW,319,4.7,7.0,80,0.00,OVC,,0.00,0.0,WeatherDisplay:10.37,2013-09-02 00:41:00,
2013-09-02 02:46:00,61.1,54.9,30.22,NW,310,3.2,6.0,80,0.00,OVC,,0.00,0.0,WeatherDisplay:10.37,2013-09-02 00:46:00,
2013-09-02 02:51:00,60.8,54.9,30.22,West,277,4.7,4.7,81,0.00,OVC,,0.00,0.0,WeatherDisplay:10.37,2013-09-02 00:51:00,
2013-09-02 02:56:00,60.5,54.6,30.22,NNW,327,3.2,7.0,81,0.00,OVC,,0.00,0.0,WeatherDisplay:10.37,2013-09-02 00:56:00,
2013-09-02 03:01:00,60.3,54.4,30.22,NW,318,1.5,4.6,81,0.00,OVC,,0.00,0.0,WeatherDisplay:10.37,2013-09-02 01:01:00,
2013-09-02 03:06:00,60.1,54.6,30.22,NW,317,0.3,3.0,82,0.00,BKN,,0.00,0.0,WeatherDisplay:10.37,2013-09-02 01:06:00,
2013-09-02 03:11:00,59.9,54.4,30.22,NW,318,2.2,4.0,82,0.00,BKN,,0.00,0.0,WeatherDisplay:10.37,2013-09-02 01:11:00,
2013-09-02 03:16:00,59.8,54.3,30.22,NW,316,3.9,8.1,82,0.00,BKN,,0.00,0.0,WeatherDisplay:10.37,2013-09-02 01:16:00,
2013-09-02 03:21:00,59.7,54.2,30.22,NW,304,0.0,3.5,82,0.00,BKN,,0.00,0.0,WeatherDisplay:10.37,2013-09-02 01:21:00,
2013-09-02 03:26:00,59.5,54.0,30.22,WNW,302,1.1,3.5,82,0.00,BKN,,0.00,0.0,WeatherDisplay:10.37,2013-09-02 01:26:00,
2013-09-02 03:31:00,59.4,53.9,30.22,WNW,302,1.9,3.5,82,0.00,BKN,,0.00,0.0,WeatherDisplay:10.37,2013-09-02 01:31:00,
2013-09-02 03:36:00,59.3,54.1,30.22,WNW,302,5.1,6.9,83,0.00,BKN,,0.00,0.0,WeatherDisplay:10.37,2013-09-02 01:36:00,
2013-09-02 03:41:00,59.3,54.1,30.22,WNW,303,3.2,4.6,83,0.00,BKN,,0.00,0.0,WeatherDisplay:10.37,2013-09-02 01:41:00,
2013-09-02 03:46:00,59.3,54.1,30.21,WNW,303,2.6,3.5,83,0.00,BKN,,0.00,0.0,WeatherDisplay:10.37,2013-09-02 01:46:00,
2013-09-02 03:51:00,59.2,54.0,30.21,WNW,299,4.4,8.1,83,0.00,BKN,,0.00,0.0,WeatherDisplay:10.37,2013-09-02 01:51:00,
2013-09-02 03:56:00,59.1,53.9,30.21,WNW,299,1.5,3.5,83,0.00,BKN,,0.00,0.0,WeatherDisplay:10.37,2013-09-02 01:56:00,
2013-09-02 04:01:00,59.1,53.9,30.20,WNW,298,2.8,5.8,83,0.00,BKN,,0.00,0.0,WeatherDisplay:10.37,2013-09-02 02:01:00,
2013-09-02 04:06:00,59.2,54.0,30.21,WNW,298,0.0,0.0,83,0.00,SCT,,0.00,0.0,WeatherDisplay:10.37,2013-09-02 02:06:00,
2013-09-02 04:11:00,59.3,54.1,30.21,WNW,297,0.0,1.0,83,0.00,SCT,,0.00,0.0,WeatherDisplay:10.37,2013-09-02 02:11:00,
2013-09-02 04:16:00,59.4,54.2,30.20,WNW,286,3.5,6.0,83,0.00,SCT,,0.00,0.0,WeatherDisplay:10.37,2013-09-02 02:16:00,
2013-09-02 04:21:00,59.5,54.0,30.20,WNW,299,3.9,4.6,82,0.00,SCT,,0.00,0.0,WeatherDisplay:10.37,2013-09-02 02:21:00,
2013-09-02 04:26:00,59.7,53.8,30.20,WNW,290,2.4,6.9,81,0.00,SCT,,0.00,0.0,WeatherDisplay:10.37,2013-09-02 02:26:00,
2013-09-02 04:31:00,59.8,53.9,30.20,WNW,289,3.0,5.8,81,0.00,SCT,,0.00,0.0,WeatherDisplay:10.37,2013-09-02 02:31:00,
2013-09-02 04:36:00,59.9,54.0,30.20,WNW,291,3.3,9.2,81,0.00,BKN,,0.00,0.0,WeatherDisplay:10.37,2013-09-02 02:36:00,
2013-09-02 04:41:00,60.0,53.8,30.20,WNW,296,4.8,6.0,80,0.00,BKN,,0.00,0.0,WeatherDisplay:10.37,2013-09-02 02:41:00,
2013-09-02 04:46:00,60.0,53.1,30.20,WNW,296,7.7,11.5,78,0.00,BKN,,0.00,0.0,WeatherDisplay:10.37,2013-09-02 02:46:00,
2013-09-02 04:51:00,59.8,52.2,30.20,West,280,4.7,8.1,76,0.00,BKN,,0.00,0.0,WeatherDisplay:10.37,2013-09-02 02:51:00,
2013-09-02 04:56:00,59.7,52.1,30.20,West,280,4.9,6.9,76,0.00,BKN,,0.00,0.0,WeatherDisplay:10.37,2013-09-02 02:56:00,
2013-09-02 05:01:00,59.6,52.0,30.20,WNW,291,4.9,6.9,76,0.00,BKN,,0.00,0.0,WeatherDisplay:10.37,2013-09-02 03:01:00,
2013-09-02 05:06:00,59.5,51.9,30.20,WNW,292,1.7,4.6,76,0.00,OVC,,0.00,0.0,WeatherDisplay:10.37,2013-09-02 03:06:00,
2013-09-02 05:11:00,59.3,52.1,30.20,WNW,294,3.6,4.6,77,0.00,OVC,,0.00,0.0,WeatherDisplay:10.37,2013-09-02 03:11:00,
2013-09-02 05:16:00,59.3,52.1,30.19,WNW,284,3.6,6.0,77,0.00,OVC,,0.00,0.0,WeatherDisplay:10.37,2013-09-02 03:16:00,
2013-09-02 05:21:00,59.3,52.4,30.19,WNW,283,3.7,5.8,78,0.00,OVC,,0.00,0.0,WeatherDisplay:10.37,2013-09-02 03:21:00,
2013-09-02 05:26:00,59.3,52.4,30.19,WNW,288,1.7,3.5,78,0.00,OVC,,0.00,0.0,WeatherDisplay:10.37,2013-09-02 03:26:00,
2013-09-02 05:31:00,59.3,52.8,30.19,West,275,0.0,8.1,79,0.00,OVC,,0.00,0.0,WeatherDisplay:10.37,2013-09-02 03:31:00,
2013-09-02 05:36:00,59.3,52.8,30.19,WNW,288,4.1,6.0,79,0.00,CLR,,0.00,0.0,WeatherDisplay:10.37,2013-09-02 03:36:00,
2013-09-02 05:41:00,59.3,52.8,30.19,WNW,286,5.2,10.4,79,0.00,CLR,,0.00,0.0,WeatherDisplay:10.37,2013-09-02 03:41:00,
2013-09-02 05:46:00,59.4,52.9,30.19,West,280,2.3,9.2,79,0.00,CLR,,0.00,0.0,WeatherDisplay:10.37,2013-09-02 03:46:00,
2013-09-02 05:51:00,59.3,52.8,30.19,WNW,291,5.7,8.1,79,0.00,CLR,,0.00,0.0,WeatherDisplay:10.37,2013-09-02 03:51:00,
2013-09-02 05:56:00,59.4,52.9,30.18,WNW,293,4.7,11.5,79,0.00,CLR,,0.00,0.0,WeatherDisplay:10.37,2013-09-02 03:56:00,
2013-09-02 06:01:00,59.3,52.8,30.19,WNW,289,2.5,5.8,79,0.00,CLR,,0.00,0.0,WeatherDisplay:10.37,2013-09-02 04:01:00,
2013-09-02 06:06:00,59.3,52.4,30.19,WNW,297,3.9,6.9,78,0.00,BKN,,0.00,0.0,WeatherDisplay:10.37,2013-09-02 04:06:00,
2013-09-02 06:11:00,59.3,52.4,30.19,WNW,284,5.9,11.5,78,0.00,BKN,,0.00,0.0,WeatherDisplay:10.37,2013-09-02 04:11:00,
2013-09-02 06:16:00,59.3,52.4,30.18,West,274,5.2,6.0,78,0.00,BKN,,0.00,0.0,WeatherDisplay:10.37,2013-09-02 04:16:00,
2013-09-02 06:21:00,59.3,52.4,30.19,WNW,292,6.0,7.0,78,0.00,BKN,,0.00,0.0,WeatherDisplay:10.37,2013-09-02 04:21:00,
2013-09-02 06:26:00,59.4,52.5,30.19,WNW,294,4.0,6.9,78,0.00,BKN,,0.00,0.0,WeatherDisplay:10.37,2013-09-02 04:26:00,
2013-09-02 06:31:00,59.5,52.6,30.19,WNW,296,2.8,6.9,78,0.00,BKN,,0.00,0.0,WeatherDisplay:10.37,2013-09-02 04:31:00,
2013-09-02 06:36:00,59.6,52.7,30.19,WNW,292,9.1,11.5,78,0.00,SCT,,0.00,0.0,WeatherDisplay:10.37,2013-09-02 04:36:00,
2013-09-02 06:41:00,59.7,52.5,30.19,WNW,294,2.9,8.1,77,0.00,SCT,,0.00,0.0,WeatherDisplay:10.37,2013-09-02 04:41:00,
2013-09-02 06:46:00,59.8,52.6,30.19,WNW,290,5.9,11.5,77,0.00,SCT,,0.00,0.0,WeatherDisplay:10.37,2013-09-02 04:46:00,
2013-09-02 06:51:00,59.8,52.6,30.19,West,271,6.2,11.5,77,0.00,SCT,,0.00,0.0,WeatherDisplay:10.37,2013-09-02 04:51:00,
2013-09-02 06:56:00,59.9,52.7,30.19,WNW,294,7.5,11.5,77,0.00,SCT,,0.00,0.0,WeatherDisplay:10.37,2013-09-02 04:56:00,
2013-09-02 07:01:00,60.0,52.7,30.19,NW,313,6.6,10.4,77,0.00,SCT,,0.00,0.0,WeatherDisplay:10.37,2013-09-02 05:01:00,
2013-09-02 07:06:00,60.0,52.7,30.19,WNW,298,5.8,11.5,77,0.00,OVC,,0.00,0.0,WeatherDisplay:10.37,2013-09-02 05:06:00,
2013-09-02 07:11:00,59.9,52.7,30.19,WNW,288,4.6,9.2,77,0.00,OVC,,0.00,0.0,WeatherDisplay:10.37,2013-09-02 05:11:00,
2013-09-02 07:16:00,60.0,53.1,30.19,WNW,284,3.7,8.1,78,0.00,OVC,,0.00,9.0,WeatherDisplay:10.37,2013-09-02 05:16:00,
2013-09-02 07:21:00,60.0,53.1,30.19,WNW,288,3.6,7.0,78,0.00,OVC,,0.00,11.0,WeatherDisplay:10.37,2013-09-02 05:21:00,
2013-09-02 07:26:00,60.0,53.1,30.19,WNW,302,4.3,11.5,78,0.00,OVC,,0.00,14.0,WeatherDisplay:10.37,2013-09-02 05:26:00,
2013-09-02 07:31:00,60.0,53.1,30.19,WNW,284,7.2,16.1,78,0.00,OVC,,0.00,21.0,WeatherDisplay:10.37,2013-09-02 05:31:00,
2013-09-02 07:36:00,60.1,53.2,30.19,WSW,246,7.2,11.5,78,0.00,OVC,,0.00,26.0,WeatherDisplay:10.37,2013-09-02 05:36:00,
2013-09-02 07:41:00,60.1,53.2,30.19,WNW,292,7.3,13.0,78,0.00,OVC,,0.00,26.0,WeatherDisplay:10.37,2013-09-02 05:41:00,
2013-09-02 07:46:00,60.2,53.3,30.19,WNW,291,7.6,9.2,78,0.00,OVC,,0.00,30.0,WeatherDisplay:10.37,2013-09-02 05:46:00,
2013-09-02 07:51:00,60.2,53.3,30.19,WNW,297,8.4,12.7,78,0.00,OVC,,0.00,37.0,WeatherDisplay:10.37,2013-09-02 05:51:00,
2013-09-02 07:56:00,60.2,53.3,30.19,WNW,298,5.1,6.0,78,0.00,OVC,,0.00,32.0,WeatherDisplay:10.37,2013-09-02 05:56:00,
2013-09-02 08:01:00,60.2,53.6,30.19,WNW,300,4.0,9.0,79,0.00,OVC,,0.00,42.0,WeatherDisplay:10.37,2013-09-02 06:01:00,
2013-09-02 08:06:00,60.2,53.6,30.20,WNW,296,5.9,11.5,79,0.00,BKN,,0.00,46.0,WeatherDisplay:10.37,2013-09-02 06:06:00,
2013-09-02 08:11:00,60.3,53.7,30.20,WNW,294,5.1,6.0,79,0.00,BKN,,0.00,39.0,WeatherDisplay:10.37,2013-09-02 06:11:00,
2013-09-02 08:16:00,60.3,53.7,30.20,West,274,4.2,9.2,79,0.00,BKN,,0.00,62.0,WeatherDisplay:10.37,2013-09-02 06:16:00,
2013-09-02 08:18:00,60.3,53.7,30.20,WNW,286,5.4,10.4,79,0.00,BKN,,0.00,81.0,WeatherDisplay:10.37,2013-09-02 06:18:00,
2013-09-02 08:21:00,60.3,53.7,30.20,WNW,286,5.4,10.4,79,0.00,BKN,,0.00,81.0,WeatherDisplay:10.37,2013-09-02 06:21:00,
2013-09-02 08:26:00,60.3,53.7,30.20,WNW,286,5.4,10.4,79,0.00,BKN,,0.00,81.0,WeatherDisplay:10.37,2013-09-02 06:26:00,
2013-09-02 08:38:00,60.3,53.7,30.20,WNW,286,5.4,10.4,79,0.00,BKN,,0.00,81.0,WeatherDisplay:10.37,2013-09-02 06:38:00,
2013-09-02 09:01:00,60.3,53.7,30.20,WNW,286,5.4,10.4,79,0.00,BKN,,0.00,81.0,WeatherDisplay:10.37,2013-09-02 07:01:00,
2013-09-02 09:10:00,61.4,55.2,30.20,WNW,290,15.0,15.0,80,0.00,OVC,,0.00,121.0,WeatherDisplay:10.37,2013-09-02 07:10:00,
2013-09-02 09:15:00,61.4,55.5,30.21,WNW,296,8.8,12.7,81,0.00,OVC,,0.00,195.0,WeatherDisplay:10.37,2013-09-02 07:15:00,
2013-09-02 09:20:00,61.6,55.7,30.21,NW,308,7.7,11.5,81,0.00,OVC,,0.00,292.0,WeatherDisplay:10.37,2013-09-02 07:20:00,
2013-09-02 09:25:00,61.8,55.5,30.21,WNW,301,8.8,10.4,80,0.00,BKN,,0.00,192.0,WeatherDisplay:10.37,2013-09-02 07:25:00,
2013-09-02 09:30:00,61.8,55.5,30.21,West,260,13.0,13.0,80,0.00,OVC,,0.00,403.0,WeatherDisplay:10.37,2013-09-02 07:30:00,
2013-09-02 09:35:00,62.0,56.1,30.21,West,277,9.2,12.7,81,0.00,-DZ,,0.00,216.0,WeatherDisplay:10.37,2013-09-02 07:35:00,
2013-09-02 09:40:00,62.1,56.2,30.21,West,264,7.4,9.2,81,0.00,-DZ,,0.00,202.0,WeatherDisplay:10.37,2013-09-02 07:40:00,
2013-09-02 09:45:00,62.1,56.2,30.21,West,280,6.0,10.4,81,0.00,-DZ,,0.00,148.0,WeatherDisplay:10.37,2013-09-02 07:45:00,
2013-09-02 09:50:00,62.1,55.8,30.21,West,279,9.2,11.5,80,0.00,-DZ,,0.00,181.0,WeatherDisplay:10.37,2013-09-02 07:50:00,
2013-09-02 09:55:00,62.0,56.1,30.22,WNW,283,6.7,11.5,81,0.00,-DZ,,0.00,199.0,WeatherDisplay:10.37,2013-09-02 07:55:00,
2013-09-02 10:00:00,62.1,56.2,30.22,West,271,7.9,11.5,81,0.00,-DZ,,0.00,200.0,WeatherDisplay:10.37,2013-09-02 08:00:00,
2013-09-02 10:05:00,62.1,56.2,30.22,WNW,289,6.3,8.1,81,0.00,BKN,,0.00,243.0,WeatherDisplay:10.37,2013-09-02 08:05:00,
2013-09-02 10:10:00,62.1,56.2,30.22,WNW,296,4.8,12.7,81,0.00,BKN,,0.00,176.0,WeatherDisplay:10.37,2013-09-02 08:10:00,
2013-09-02 10:15:00,62.2,56.3,30.22,WNW,303,6.5,13.8,81,0.00,BKN,,0.00,246.0,WeatherDisplay:10.37,2013-09-02 08:15:00,
2013-09-02 10:20:00,62.3,56.4,30.22,WNW,294,6.4,11.5,81,0.00,BKN,,0.00,388.0,WeatherDisplay:10.37,2013-09-02 08:20:00,
2013-09-02 10:25:00,62.6,56.7,30.22,WNW,284,5.2,11.5,81,0.00,BKN,,0.00,179.0,WeatherDisplay:10.37,2013-09-02 08:25:00,
2013-09-02 10:30:00,62.9,56.6,30.22,West,263,7.9,16.1,80,0.00,BKN,,0.00,587.0,WeatherDisplay:10.37,2013-09-02 08:30:00,
2013-09-02 10:35:00,63.1,56.8,30.22,West,261,8.8,13.8,80,0.00,BKN,,0.00,621.0,WeatherDisplay:10.37,2013-09-02 08:35:00,
2013-09-02 10:40:00,63.6,56.9,30.22,WSW,245,9.2,10.4,79,0.00,BKN,,0.00,564.0,WeatherDisplay:10.37,2013-09-02 08:40:00,
2013-09-02 10:45:00,63.6,56.9,30.22,West,277,7.0,7.0,79,0.00,BKN,,0.00,513.0,WeatherDisplay:10.37,2013-09-02 08:45:00,
2013-09-02 10:50:00,63.7,57.0,30.22,WSW,255,8.0,11.5,79,0.00,BKN,,0.00,531.0,WeatherDisplay:10.37,2013-09-02 08:50:00,
2013-09-02 10:55:00,63.8,57.1,30.23,West,280,4.9,10.4,79,0.00,BKN,,0.00,545.0,WeatherDisplay:10.37,2013-09-02 08:55:00,
2013-09-02 11:00:00,63.9,57.2,30.23,West,277,7.0,12.7,79,0.00,BKN,,0.00,626.0,WeatherDisplay:10.37,2013-09-02 09:00:00,
2013-09-02 11:05:00,63.9,57.2,30.23,WNW,298,6.6,9.2,79,0.00,BKN,,0.00,232.0,WeatherDisplay:10.37,2013-09-02 09:05:00,
2013-09-02 11:10:00,64.0,57.3,30.23,WNW,282,7.4,11.5,79,0.00,BKN,,0.00,223.0,WeatherDisplay:10.37,2013-09-02 09:10:00,
2013-09-02 11:15:00,63.9,57.2,30.23,WSW,244,8.6,12.7,79,0.00,BKN,,0.00,192.0,WeatherDisplay:10.37,2013-09-02 09:15:00,
2013-09-02 11:20:00,64.0,57.0,30.23,WNW,286,7.1,11.5,78,0.00,BKN,,0.00,209.0,WeatherDisplay:10.37,2013-09-02 09:20:00,
2013-09-02 11:25:00,64.1,57.4,30.23,WNW,290,6.7,9.0,79,0.00,BKN,,0.00,192.0,WeatherDisplay:10.37,2013-09-02 09:25:00,
2013-09-02 11:30:00,64.0,57.3,30.23,WNW,284,5.4,11.5,79,0.00,BKN,,0.00,148.0,WeatherDisplay:10.37,2013-09-02 09:30:00,
2013-09-02 11:35:00,63.8,57.5,30.24,SW,229,8.8,13.8,80,0.00,BKN,,0.00,174.0,WeatherDisplay:10.37,2013-09-02 09:35:00,
2013-09-02 11:40:00,63.6,57.3,30.23,West,275,5.5,9.2,80,0.00,BKN,,0.00,176.0,WeatherDisplay:10.37,2013-09-02 09:40:00,
2013-09-02 11:45:00,63.4,57.1,30.24,WNW,293,7.7,11.0,80,0.00,BKN,,0.00,214.0,WeatherDisplay:10.37,2013-09-02 09:45:00,
2013-09-02 11:50:00,63.5,57.2,30.24,West,261,7.5,12.0,80,0.00,BKN,,0.00,236.0,WeatherDisplay:10.37,2013-09-02 09:50:00,
2013-09-02 11:55:00,63.7,57.7,30.23,West,263,6.4,11.5,81,0.00,BKN,,0.00,824.0,WeatherDisplay:10.37,2013-09-02 09:55:00,
2013-09-02 12:00:00,64.4,58.1,30.23,West,271,5.1,12.7,80,0.00,BKN,,0.00,854.0,WeatherDisplay:10.37,2013-09-02 10:00:00,
2013-09-02 12:05:00,64.8,58.1,30.23,NW,324,6.0,12.7,79,0.00,BKN,,0.00,244.0,WeatherDisplay:10.37,2013-09-02 10:05:00,
2013-09-02 12:10:00,64.7,57.7,30.23,West,277,6.9,8.1,78,0.00,BKN,,0.00,343.0,WeatherDisplay:10.37,2013-09-02 10:10:00,
2013-09-02 12:15:00,64.6,57.6,30.23,WNW,287,8.2,15.0,78,0.00,OVC,,0.00,281.0,WeatherDisplay:10.37,2013-09-02 10:15:00,
2013-09-02 12:20:00,64.5,57.8,30.24,West,277,9.5,11.5,79,0.00,OVC,,0.00,223.0,WeatherDisplay:10.37,2013-09-02 10:20:00,
2013-09-02 12:25:00,64.3,57.6,30.23,WNW,288,8.4,11.5,79,0.00,OVC,,0.00,237.0,WeatherDisplay:10.37,2013-09-02 10:25:00,
2013-09-02 12:30:00,64.2,57.5,30.24,West,281,7.8,11.5,79,0.00,OVC,,0.00,216.0,WeatherDisplay:10.37,2013-09-02 10:30:00,
2013-09-02 12:35:00,64.1,57.4,30.24,WSW,253,6.6,12.0,79,0.00,OVC,,0.00,221.0,WeatherDisplay:10.37,2013-09-02 10:35:00,
2013-09-02 12:40:00,63.9,57.6,30.24,WNW,284,9.8,13.8,80,0.00,OVC,,0.00,167.0,WeatherDisplay:10.37,2013-09-02 10:40:00,
2013-09-02 12:45:00,63.8,57.5,30.24,West,279,5.9,9.0,80,0.00,OVC,,0.00,267.0,WeatherDisplay:10.37,2013-09-02 10:45:00,
2013-09-02 12:50:00,63.8,57.5,30.24,West,275,9.4,11.5,80,0.00,OVC,,0.00,190.0,WeatherDisplay:10.37,2013-09-02 10:50:00,
2013-09-02 12:55:00,63.9,57.6,30.24,West,268,4.8,9.2,80,0.00,OVC,,0.00,151.0,WeatherDisplay:10.37,2013-09-02 10:55:00,
2013-09-02 13:00:00,63.9,57.6,30.24,West,267,9.5,17.3,80,0.00,OVC,,0.00,153.0,WeatherDisplay:10.37,2013-09-02 11:00:00,
2013-09-02 13:05:00,63.8,57.5,30.24,West,263,9.1,15.0,80,0.00,OVC,,0.00,158.0,WeatherDisplay:10.37,2013-09-02 11:05:00,
2013-09-02 13:10:00,63.6,57.3,30.24,WSW,253,8.3,13.8,80,0.00,OVC,,0.00,181.0,WeatherDisplay:10.37,2013-09-02 11:10:00,
2013-09-02 13:15:00,63.6,57.6,30.24,West,269,9.0,10.4,81,0.00,OVC,,0.00,186.0,WeatherDisplay:10.37,2013-09-02 11:15:00,
2013-09-02 13:20:00,63.7,57.7,30.24,WNW,282,7.1,10.4,81,0.00,OVC,,0.00,227.0,WeatherDisplay:10.37,2013-09-02 11:20:00,
2013-09-02 13:25:00,63.8,57.5,30.24,WSW,250,8.9,14.0,80,0.00,OVC,,0.00,279.0,WeatherDisplay:10.37,2013-09-02 11:25:00,
2013-09-02 13:30:00,64.0,58.0,30.24,West,280,9.8,10.0,81,0.00,OVC,,0.00,390.0,WeatherDisplay:10.37,2013-09-02 11:30:00,
2013-09-02 13:35:00,64.2,57.9,30.24,West,264,9.0,15.0,80,0.00,OVC,,0.00,316.0,WeatherDisplay:10.37,2013-09-02 11:35:00,
2013-09-02 13:40:00,64.4,57.7,30.23,West,275,8.2,13.8,79,0.00,OVC,,0.00,253.0,WeatherDisplay:10.37,2013-09-02 11:40:00,
2013-09-02 13:45:00,64.5,57.8,30.24,WNW,300,8.8,11.5,79,0.00,OVC,,0.00,204.0,WeatherDisplay:10.37,2013-09-02 11:45:00,
2013-09-02 13:50:00,64.2,57.2,30.24,WNW,300,4.4,10.4,78,0.00,OVC,,0.00,281.0,WeatherDisplay:10.37,2013-09-02 11:50:00,
2013-09-02 13:55:00,64.4,57.7,30.24,WSW,243,7.9,11.5,79,0.00,OVC,,0.00,257.0,WeatherDisplay:10.37,2013-09-02 11:55:00,
2013-09-02 14:00:00,64.6,57.9,30.24,West,277,6.2,11.5,79,0.00,OVC,,0.00,223.0,WeatherDisplay:10.37,2013-09-02 12:00:00,
2013-09-02 14:05:00,64.8,58.1,30.24,WSW,246,9.3,11.5,79,0.00,OVC,,0.00,204.0,WeatherDisplay:10.37,2013-09-02 12:05:00,
2013-09-02 14:10:00,64.7,58.0,30.24,WSW,248,7.2,12.7,79,0.00,OVC,,0.00,244.0,WeatherDisplay:10.37,2013-09-02 12:10:00,
2013-09-02 14:15:00,64.9,58.2,30.24,WSW,258,7.2,10.4,79,0.00,OVC,,0.00,299.0,WeatherDisplay:10.37,2013-09-02 12:15:00,
2013-09-02 14:20:00,64.9,58.2,30.24,West,263,10.9,12.7,79,0.00,OVC,,0.00,287.0,WeatherDisplay:10.37,2013-09-02 12:20:00,
2013-09-02 14:25:00,65.0,58.3,30.24,WSW,242,7.7,8.1,79,0.00,OVC,,0.00,197.0,WeatherDisplay:10.37,2013-09-02 12:25:00,
2013-09-02 14:30:00,65.0,58.3,30.24,WSW,252,8.8,9.0,79,0.00,OVC,,0.00,121.0,WeatherDisplay:10.37,2013-09-02 12:30:00,
2013-09-02 14:35:00,64.7,58.0,30.25,WSW,242,10.3,13.8,79,0.00,OVC,,0.00,100.0,WeatherDisplay:10.37,2013-09-02 12:35:00,
2013-09-02 14:40:00,64.4,57.7,30.25,WSW,258,9.3,16.1,79,0.00,OVC,,0.00,88.0,WeatherDisplay:10.37,2013-09-02 12:40:00,
2013-09-02 14:45:00,64.2,57.9,30.25,WNW,286,6.0,11.5,80,0.00,OVC,,0.00,97.0,WeatherDisplay:10.37,2013-09-02 12:45:00,
2013-09-02 14:50:00,64.0,57.7,30.25,West,281,4.4,8.1,80,0.00,OVC,,0.00,97.0,WeatherDisplay:10.37,2013-09-02 12:50:00,
2013-09-02 14:55:00,63.9,57.6,30.25,WNW,287,6.4,12.7,80,0.00,OVC,,0.00,107.0,WeatherDisplay:10.37,2013-09-02 12:55:00,
2013-09-02 15:00:00,63.8,57.8,30.25,WSW,250,8.4,13.8,81,0.00,OVC,,0.00,113.0,WeatherDisplay:10.37,2013-09-02 13:00:00,
2013-09-02 15:05:00,63.8,57.8,30.25,WNW,282,6.1,13.8,81,0.00,OVC,,0.00,160.0,WeatherDisplay:10.37,2013-09-02 13:05:00,
2013-09-02 15:10:00,63.9,57.9,30.25,West,281,7.6,10.4,81,0.00,OVC,,0.00,204.0,WeatherDisplay:10.37,2013-09-02 13:10:00,
2013-09-02 15:15:00,64.1,58.1,30.25,WNW,293,5.1,16.1,81,0.00,OVC,,0.00,183.0,WeatherDisplay:10.37,2013-09-02 13:15:00,
2013-09-02 15:20:00,64.2,57.9,30.25,WNW,302,10.8,16.1,80,0.00,OVC,,0.00,253.0,WeatherDisplay:10.37,2013-09-02 13:20:00,
2013-09-02 15:25:00,64.2,57.5,30.25,WNW,298,7.8,12.7,79,0.00,OVC,,0.00,188.0,WeatherDisplay:10.37,2013-09-02 13:25:00,
2013-09-02 15:30:00,64.3,58.0,30.25,West,260,6.1,10.0,80,0.00,OVC,,0.00,158.0,WeatherDisplay:10.37,2013-09-02 13:30:00,
2013-09-02 15:35:00,64.4,58.1,30.25,West,266,4.6,15.0,80,0.00,OVC,,0.00,206.0,WeatherDisplay:10.37,2013-09-02 13:35:00,
2013-09-02 15:40:00,64.5,57.8,30.25,WNW,293,7.1,11.5,79,0.00,OVC,,0.00,220.0,WeatherDisplay:10.37,2013-09-02 13:40:00,
2013-09-02 15:45:00,64.5,58.2,30.25,WSW,257,7.3,11.5,80,0.00,OVC,,0.00,260.0,WeatherDisplay:10.37,2013-09-02 13:45:00,
2013-09-02 15:50:00,64.7,58.0,30.25,West,259,5.8,11.5,79,0.00,OVC,,0.00,202.0,WeatherDisplay:10.37,2013-09-02 13:50:00,
2013-09-02 15:55:00,64.9,58.2,30.25,WNW,285,5.9,10.4,79,0.00,OVC,,0.00,192.0,WeatherDisplay:10.37,2013-09-02 13:55:00,
2013-09-02 16:00:00,65.0,58.3,30.25,WNW,282,5.5,10.4,79,0.00,OVC,,0.00,179.0,WeatherDisplay:10.37,2013-09-02 14:00:00,
2013-09-02 16:05:00,65.0,58.0,30.25,WNW,293,7.8,13.8,78,0.00,OVC,,0.00,221.0,WeatherDisplay:10.37,2013-09-02 14:05:00,
2013-09-02 16:10:00,65.1,58.4,30.25,West,271,5.8,8.1,79,0.00,OVC,,0.00,214.0,WeatherDisplay:10.37,2013-09-02 14:10:00,
2013-09-02 16:15:00,65.2,58.5,30.25,WNW,295,5.5,10.4,79,0.00,OVC,,0.00,236.0,WeatherDisplay:10.37,2013-09-02 14:15:00,
2013-09-02 16:20:00,65.3,58.6,30.25,West,270,3.1,8.1,79,0.00,OVC,,0.00,176.0,WeatherDisplay:10.37,2013-09-02 14:20:00,
2013-09-02 16:25:00,65.4,58.7,30.25,West,275,8.0,10.4,79,0.00,OVC,,0.00,192.0,WeatherDisplay:10.37,2013-09-02 14:25:00,
2013-09-02 16:30:00,65.5,58.8,30.25,West,263,3.7,6.9,79,0.00,OVC,,0.00,216.0,WeatherDisplay:10.37,2013-09-02 14:30:00,
2013-09-02 16:35:00,65.4,58.3,30.25,WNW,303,4.5,11.5,78,0.00,OVC,,0.00,278.0,WeatherDisplay:10.37,2013-09-02 14:35:00,
2013-09-02 16:40:00,65.5,58.4,30.25,WNW,300,6.0,11.5,78,0.00,OVC,,0.00,271.0,WeatherDisplay:10.37,2013-09-02 14:40:00,
2013-09-02 16:45:00,65.5,58.4,30.25,West,272,6.7,13.8,78,0.00,OVC,,0.00,262.0,WeatherDisplay:10.37,2013-09-02 14:45:00,
2013-09-02 16:50:00,65.6,58.9,30.25,WNW,284,8.1,11.5,79,0.00,OVC,,0.00,295.0,WeatherDisplay:10.37,2013-09-02 14:50:00,
2013-09-02 16:55:00,65.7,59.0,30.25,West,275,6.0,15.0,79,0.00,OVC,,0.00,236.0,WeatherDisplay:10.37,2013-09-02 14:55:00,
2013-09-02 17:00:00,65.7,59.0,30.25,West,277,5.8,10.4,79,0.00,OVC,,0.00,232.0,WeatherDisplay:10.37,2013-09-02 15:00:00,
2013-09-02 17:05:00,65.7,59.0,30.25,West,274,7.3,18.4,79,0.00,OVC,,0.00,216.0,WeatherDisplay:10.37,2013-09-02 15:05:00,
2013-09-02 17:10:00,65.8,59.1,30.25,WSW,246,10.8,11.5,79,0.00,OVC,,0.00,267.0,WeatherDisplay:10.37,2013-09-02 15:10:00,
2013-09-02 17:15:00,65.9,59.2,30.25,West,259,6.1,10.4,79,0.00,OVC,,0.00,209.0,WeatherDisplay:10.37,2013-09-02 15:15:00,
2013-09-02 17:20:00,66.0,59.3,30.25,NW,309,4.3,8.1,79,0.00,OVC,,0.00,183.0,WeatherDisplay:10.37,2013-09-02 15:20:00,
2013-09-02 17:25:00,66.0,59.3,30.25,West,269,7.5,11.5,79,0.00,OVC,,0.00,190.0,WeatherDisplay:10.37,2013-09-02 15:25:00,
2013-09-02 17:31:00,66.1,59.4,30.25,WNW,282,8.6,12.7,79,0.00,OVC,,0.00,230.0,WeatherDisplay:10.37,2013-09-02 15:31:00,
2013-09-02 17:36:00,66.0,59.3,30.25,West,273,4.8,6.9,79,0.00,OVC,,0.00,216.0,WeatherDisplay:10.37,2013-09-02 15:36:00,
2013-09-02 17:41:00,66.0,58.9,30.25,West,266,7.4,11.5,78,0.00,OVC,,0.00,160.0,WeatherDisplay:10.37,2013-09-02 15:41:00,
2013-09-02 17:46:00,66.0,58.9,30.25,West,263,8.9,12.7,78,0.00,OVC,,0.00,165.0,WeatherDisplay:10.37,2013-09-02 15:46:00,
2013-09-02 17:51:00,66.0,59.3,30.25,WNW,284,3.9,8.1,79,0.00,OVC,,0.00,134.0,WeatherDisplay:10.37,2013-09-02 15:51:00,
2013-09-02 17:56:00,66.0,59.3,30.25,West,269,4.4,8.1,79,0.00,OVC,,0.00,230.0,WeatherDisplay:10.37,2013-09-02 15:56:00,
2013-09-02 18:01:00,66.3,59.2,30.24,WSW,242,7.6,10.0,78,0.00,OVC,,0.00,285.0,WeatherDisplay:10.37,2013-09-02 16:01:00,
2013-09-02 18:06:00,66.5,59.4,30.25,West,265,3.3,6.9,78,0.00,OVC,,0.00,153.0,WeatherDisplay:10.37,2013-09-02 16:06:00,
2013-09-02 18:11:00,66.5,59.4,30.24,West,264,4.4,8.1,78,0.00,OVC,,0.00,86.0,WeatherDisplay:10.37,2013-09-02 16:11:00,
2013-09-02 18:16:00,66.4,59.3,30.25,WSW,255,4.1,6.9,78,0.00,OVC,,0.00,156.0,WeatherDisplay:10.37,2013-09-02 16:16:00,
2013-09-02 18:21:00,66.5,59.4,30.24,West,266,4.5,8.0,78,0.00,OVC,,0.00,169.0,WeatherDisplay:10.37,2013-09-02 16:21:00,
2013-09-02 18:26:00,66.8,59.7,30.24,West,261,6.7,10.4,78,0.00,OVC,,0.00,272.0,WeatherDisplay:10.37,2013-09-02 16:26:00,
2013-09-02 18:31:00,67.5,60.0,30.25,West,261,7.2,11.5,77,0.00,OVC,,0.00,264.0,WeatherDisplay:10.37,2013-09-02 16:31:00,
2013-09-02 18:36:00,67.9,60.0,30.24,WSW,254,7.5,9.2,76,0.00,FEW,,0.00,250.0,WeatherDisplay:10.37,2013-09-02 16:36:00,
2013-09-02 18:41:00,68.0,59.8,30.24,West,275,3.9,9.2,75,0.00,FEW,,0.00,225.0,WeatherDisplay:10.37,2013-09-02 16:41:00,
2013-09-02 18:46:00,68.2,60.0,30.24,West,260,6.9,9.2,75,0.00,FEW,,0.00,204.0,WeatherDisplay:10.37,2013-09-02 16:46:00,
2013-09-02 18:51:00,68.4,60.1,30.24,WSW,257,6.1,10.4,75,0.00,FEW,,0.00,172.0,WeatherDisplay:10.37,2013-09-02 16:51:00,
2013-09-02 18:56:00,68.5,59.9,30.24,WSW,246,2.5,6.9,74,0.00,FEW,,0.00,148.0,WeatherDisplay:10.37,2013-09-02 16:56:00,
2013-09-02 19:01:00,68.3,59.7,30.24,West,275,2.6,7.0,74,0.00,SCT,,0.00,65.0,WeatherDisplay:10.37,2013-09-02 17:01:00,
2013-09-02 19:06:00,67.9,59.7,30.24,West,261,6.3,8.1,75,0.00,FEW,,0.00,91.0,WeatherDisplay:10.37,2013-09-02 17:06:00,
2013-09-02 19:11:00,67.5,59.6,30.24,West,259,3.0,5.0,76,0.00,FEW,,0.00,74.0,WeatherDisplay:10.37,2013-09-02 17:11:00,
2013-09-02 19:16:00,67.3,59.8,30.24,West,268,3.3,8.1,77,0.00,FEW,,0.00,105.0,WeatherDisplay:10.37,2013-09-02 17:16:00,
2013-09-02 19:21:00,67.2,59.7,30.24,WSW,256,5.1,9.2,77,0.00,FEW,,0.00,98.0,WeatherDisplay:10.37,2013-09-02 17:21:00,
2013-09-02 19:26:00,67.3,60.2,30.24,West,267,4.5,4.5,78,0.00,FEW,,0.00,84.0,WeatherDisplay:10.37,2013-09-02 17:26:00,
2013-09-02 19:31:00,67.3,60.2,30.24,West,268,4.8,4.8,78,0.00,FEW,,0.00,70.0,WeatherDisplay:10.37,2013-09-02 17:31:00,
2013-09-02 19:36:00,67.1,60.0,30.24,West,262,4.4,6.9,78,0.00,FEW,,0.00,56.0,WeatherDisplay:10.37,2013-09-02 17:36:00,
2013-09-02 19:41:00,66.7,59.6,30.25,WSW,255,6.6,8.1,78,0.00,FEW,,0.00,49.0,WeatherDisplay:10.37,2013-09-02 17:41:00,
2013-09-02 19:46:00,66.4,59.7,30.24,WSW,244,3.1,3.5,79,0.00,FEW,,0.00,30.0,WeatherDisplay:10.37,2013-09-02 17:46:00,
2013-09-02 19:51:00,66.2,59.8,30.24,WSW,246,6.0,8.1,80,0.00,FEW,,0.00,23.0,WeatherDisplay:10.37,2013-09-02 17:51:00,
2013-09-02 19:56:00,65.9,59.5,30.25,West,259,3.4,4.6,80,0.00,FEW,,0.00,19.0,WeatherDisplay:10.37,2013-09-02 17:56:00,
2013-09-02 20:01:00,65.7,59.3,30.25,WSW,252,4.8,6.9,80,0.00,FEW,,0.00,16.0,WeatherDisplay:10.37,2013-09-02 18:01:00,
2013-09-02 20:06:00,65.6,59.6,30.25,WSW,252,1.0,3.5,81,0.00,FEW,,0.00,14.0,WeatherDisplay:10.37,2013-09-02 18:06:00,
2013-09-02 20:11:00,65.4,59.4,30.25,WSW,240,1.4,8.1,81,0.00,FEW,,0.00,11.0,WeatherDisplay:10.37,2013-09-02 18:11:00,
2013-09-02 20:16:00,65.2,59.2,30.25,WSW,243,1.1,3.5,81,0.00,FEW,,0.00,9.0,WeatherDisplay:10.37,2013-09-02 18:16:00,
2013-09-02 20:21:00,65.1,59.4,30.25,WSW,243,0.0,0.0,82,0.00,FEW,,0.00,7.0,WeatherDisplay:10.37,2013-09-02 18:21:00,
2013-09-02 20:26:00,64.9,59.3,30.25,WSW,252,4.8,6.9,82,0.00,FEW,,0.00,5.0,WeatherDisplay:10.37,2013-09-02 18:26:00,
2013-09-02 20:31:00,64.6,59.3,30.25,WSW,253,0.0,3.0,83,0.00,CLR,,0.00,0.0,WeatherDisplay:10.37,2013-09-02 18:31:00,
2013-09-02 20:36:00,64.4,59.4,30.25,WSW,251,3.8,5.8,84,0.00,CLR,,0.00,0.0,WeatherDisplay:10.37,2013-09-02 18:36:00,
2013-09-02 20:41:00,64.2,59.2,30.25,WSW,250,1.1,3.5,84,0.00,CLR,,0.00,0.0,WeatherDisplay:10.37,2013-09-02 18:41:00,
2013-09-02 20:46:00,64.1,59.5,30.25,WSW,252,3.5,6.0,85,0.00,CLR,,0.00,0.0,WeatherDisplay:10.37,2013-09-02 18:46:00,
2013-09-02 20:51:00,63.9,59.3,30.25,WSW,252,0.7,3.5,85,0.00,CLR,,0.00,0.0,WeatherDisplay:10.37,2013-09-02 18:51:00,
2013-09-02 20:56:00,63.9,59.3,30.26,WSW,252,3.1,5.8,85,0.00,CLR,,0.00,0.0,WeatherDisplay:10.37,2013-09-02 18:56:00,
2013-09-02 21:01:00,63.8,59.2,30.26,WSW,252,3.9,5.0,85,0.00,CLR,,0.00,0.0,WeatherDisplay:10.37,2013-09-02 19:01:00,
2013-09-02 21:06:00,63.8,59.5,30.26,WSW,252,3.9,4.6,86,0.00,CLR,,0.00,0.0,WeatherDisplay:10.37,2013-09-02 19:06:00,
2013-09-02 21:11:00,63.8,59.5,30.26,WSW,251,4.4,5.8,86,0.00,CLR,,0.00,0.0,WeatherDisplay:10.37,2013-09-02 19:11:00,
2013-09-02 21:16:00,63.7,59.7,30.26,WSW,254,4.2,4.2,87,0.00,CLR,,0.00,0.0,WeatherDisplay:10.37,2013-09-02 19:16:00,
2013-09-02 21:21:00,63.7,59.7,30.26,WSW,254,3.3,4.0,87,0.00,CLR,,0.00,0.0,WeatherDisplay:10.37,2013-09-02 19:21:00,
2013-09-02 21:26:00,63.7,59.7,30.26,WSW,254,1.4,3.5,87,0.00,CLR,,0.00,0.0,WeatherDisplay:10.37,2013-09-02 19:26:00,
2013-09-02 21:31:00,63.6,60.0,30.26,WSW,253,0.0,0.0,88,0.00,CLR,,0.00,0.0,WeatherDisplay:10.37,2013-09-02 19:31:00,
2013-09-02 21:36:00,63.6,60.0,30.26,WSW,253,1.2,4.0,88,0.00,CLR,,0.00,0.0,WeatherDisplay:10.37,2013-09-02 19:36:00,
2013-09-02 21:41:00,63.6,60.0,30.26,WSW,253,0.0,4.6,88,0.00,CLR,,0.00,0.0,WeatherDisplay:10.37,2013-09-02 19:41:00,
2013-09-02 21:46:00,63.5,59.9,30.26,WSW,253,1.8,5.0,88,0.00,CLR,,0.00,0.0,WeatherDisplay:10.37,2013-09-02 19:46:00,
2013-09-02 21:51:00,63.4,59.8,30.27,WSW,253,1.9,5.8,88,0.00,CLR,,0.00,0.0,WeatherDisplay:10.37,2013-09-02 19:51:00,
2013-09-02 21:56:00,63.4,59.8,30.27,WSW,253,0.0,0.0,88,0.00,CLR,,0.00,0.0,WeatherDisplay:10.37,2013-09-02 19:56:00,
2013-09-02 22:01:00,63.3,59.7,30.27,WSW,253,0.3,3.5,88,0.00,CLR,,0.00,0.0,WeatherDisplay:10.37,2013-09-02 20:01:00,
2013-09-02 22:06:00,63.3,59.7,30.27,WSW,253,0.0,1.2,88,0.00,CLR,,0.00,0.0,WeatherDisplay:10.37,2013-09-02 20:06:00,
2013-09-02 22:11:00,63.1,59.8,30.27,WSW,253,0.0,0.0,89,0.00,CLR,,0.00,0.0,WeatherDisplay:10.37,2013-09-02 20:11:00,
2013-09-02 22:16:00,63.1,59.8,30.28,WSW,253,0.0,0.0,89,0.00,CLR,,0.00,0.0,WeatherDisplay:10.37,2013-09-02 20:16:00,
2013-09-02 22:21:00,63.0,59.7,30.28,WSW,253,0.0,0.0,89,0.00,CLR,,0.00,0.0,WeatherDisplay:10.37,2013-09-02 20:21:00,
2013-09-02 22:26:00,62.9,59.6,30.28,WSW,253,0.0,0.0,89,0.00,CLR,,0.00,0.0,WeatherDisplay:10.37,2013-09-02 20:26:00,
2013-09-02 22:31:00,62.9,59.6,30.28,WSW,253,0.0,0.0,89,0.00,CLR,,0.00,0.0,WeatherDisplay:10.37,2013-09-02 20:31:00,
2013-09-02 22:36:00,62.9,59.6,30.28,WSW,253,0.0,0.0,89,0.00,CLR,,0.00,0.0,WeatherDisplay:10.37,2013-09-02 20:36:00,
2013-09-02 22:41:00,62.8,59.8,30.28,WSW,253,0.0,0.0,90,0.00,CLR,,0.00,0.0,WeatherDisplay:10.37,2013-09-02 20:41:00,
2013-09-02 22:46:00,62.8,59.8,30.28,WSW,253,0.0,0.0,90,0.00,CLR,,0.00,0.0,WeatherDisplay:10.37,2013-09-02 20:46:00,
2013-09-02 22:51:00,62.6,59.6,30.28,WSW,253,0.0,0.0,90,0.00,CLR,,0.00,0.0,WeatherDisplay:10.37,2013-09-02 20:51:00,
2013-09-02 22:56:00,62.5,59.5,30.28,WSW,253,0.0,0.0,90,0.00,CLR,,0.00,0.0,WeatherDisplay:10.37,2013-09-02 20:56:00,
2013-09-02 23:01:00,62.4,59.4,30.28,WSW,253,0.0,0.0,90,0.00,CLR,,0.00,0.0,WeatherDisplay:10.37,2013-09-02 21:01:00,
2013-09-02 23:06:00,62.3,59.3,30.29,WSW,253,0.0,0.0,90,0.00,CLR,,0.00,0.0,WeatherDisplay:10.37,2013-09-02 21:06:00,
2013-09-02 23:11:00,62.0,58.7,30.29,WSW,253,0.0,0.0,89,0.00,CLR,,0.00,0.0,WeatherDisplay:10.37,2013-09-02 21:11:00,
2013-09-02 23:16:00,61.6,58.3,30.29,WSW,253,0.0,0.0,89,0.00,CLR,,0.00,0.0,WeatherDisplay:10.37,2013-09-02 21:16:00,
2013-09-02 23:21:00,61.2,57.9,30.29,WSW,253,0.0,0.0,89,0.00,CLR,,0.00,0.0,WeatherDisplay:10.37,2013-09-02 21:21:00,
2013-09-02 23:26:00,61.0,57.7,30.29,WSW,253,0.0,0.0,89,0.00,CLR,,0.00,0.0,WeatherDisplay:10.37,2013-09-02 21:26:00,
2013-09-02 23:31:00,60.8,57.8,30.28,WSW,253,0.0,0.0,90,0.00,CLR,,0.00,0.0,WeatherDisplay:10.37,2013-09-02 21:31:00,
2013-09-02 23:36:00,60.6,57.6,30.28,WSW,253,0.0,0.0,90,0.00,CLR,,0.00,0.0,WeatherDisplay:10.37,2013-09-02 21:36:00,
2013-09-02 23:41:00,60.5,57.5,30.28,WSW,253,0.0,0.0,90,0.00,CLR,,0.00,0.0,WeatherDisplay:10.37,2013-09-02 21:41:00,
2013-09-02 23:46:00,60.4,57.4,30.28,WSW,253,0.0,0.0,90,0.00,CLR,,0.00,0.0,WeatherDisplay:10.37,2013-09-02 21:46:00,
2013-09-02 23:51:00,60.2,57.2,30.28,WSW,253,0.0,0.0,90,0.00,CLR,,0.00,0.0,WeatherDisplay:10.37,2013-09-02 21:51:00,
2013-09-02 23:56:00,60.1,57.4,30.28,WSW,253,0.0,0.0,91,0.00,CLR,,0.00,0.0,WeatherDisplay:10.37,2013-09-02 21:56:00,